Location: Colle San Luigi
(43.5500°N, 13.4167°E)
Time: 12:27:50
(UTC+00:00)

Ariane Rocket - Pass Details

Date: 09 April 2020
Orbit: 761 x 769 km, 98.7° (Epoch: 06 June)

Event Time Altitude Azimuth Distance (km) Brightness Sun altitude
Rises 18:24:48 0° 163° (SSE) 3,216 5.9 -8.1°
Reaches altitude 10° 18:27:05 10° 162° (SSE) 2,293 5.1 -8.5°
Maximum altitude 18:32:09 86° 75° (ENE) 771 3.0 -9.4°
Drops below altitude 10° 18:37:14 10° 347° (NNW) 2,305 6.0 -10.2°
Sets 18:39:32 0° 347° (NNW) 3,235 6.8 -10.6°
